Location: Unspecified
(0.0000°N, 0.0000°E)
Time: 07:07:34
(UTC+00:00)

SEEDS - Pass Details

Date: 02 April 2019
Orbit: 587 x 603 km, 97.5° (Epoch: 16 June)

Event Time Altitude Azimuth Distance (km) Brightness Sun altitude
Rises 18:43:11 0° 194° (SSW) 2,852 ? -9.9°
Reaches altitude 10° 18:45:50 10° 211° (SSW) 1,945 ? -10.5°
Maximum altitude 18:48:55 20° 258° (WSW) 1,409 ? -11.3°
Drops below altitude 10° 18:51:59 10° 305° (NW) 1,933 ? -12.1°
Sets 18:54:37 0° 323° (NW) 2,828 ? -12.7°
